Home   Weather   Vatican City   Past weeks

Flag for Vatican City State Past Weather in Vatican City, Vatican City State — Yesterday and Last 2 Weeks

Now
79 °F

Scattered clouds.


Feels Like: 80 °F
Forecast: 71 / 86 °F
Wind: 6 mph from South

Location: Rome / Ciampino

Current Time: Jul 24, 2017 at 9:04:42 am

Latest Report: Jul 24, 2017 at 8:20 am


Visibility: N/A

Pressure: 29.80 "Hg

Humidity: 54%

Dew Point: 61 °F

Location of Vatican CityLocation

Past Weather in Vatican City — Graph

°F

Vatican City Temperature Yesterday

Maximum temperature yesterday: 91 °F (at 3:50 pm)
Minimum temperature yesterday: 73 °F (at 1:50 am)
Average temperature yesterday: 82 °F

High & Low Weather Summary for the Past Weeks

 TemperatureHumidityPressure
High93 °F (Jul 9, 1:50 pm)94% (Jul 13, 2:50 am)30.09 "Hg (Jul 13, 2:50 am)
Low66 °F (Jul 17, 4:20 am)18% (Jul 9, 5:20 pm)29.80 "Hg (Jul 14, 2:20 pm)
Average80 °F49%29.97 "Hg
* Reported Jul 9 7:20 am — Jul 24 7:20 am, Vatican City. Weather by CustomWeather, © 2017

Note: Actual official high and low records may vary slightly from our data, if they occured in-between our weather recording intervals... More about our weather records

Advertising

Vatican City Weather History for the Previous 24 Hours

Scroll right to see more
 ConditionsComfort  
Time TempWeatherWind HumidityBarometerVisibility
7:20 am
Mon, Jul 24
77 °FScattered clouds.6 mph42%29.83 "HgN/A
6:50 am73 °FScattered clouds.2 mph53%29.86 "HgN/A
6:20 am72 °FScattered clouds.3 mph65%29.86 "HgN/A
5:50 am72 °FPassing clouds.5 mph65%29.89 "HgN/A
5:20 am73 °FClear.2 mph47%29.89 "Hg10 mi
4:50 am72 °FClear.5 mph50%29.89 "Hg6 mi
4:20 am73 °FClear.6 mph61%29.92 "Hg6 mi
3:50 am73 °FPassing clouds.5 mph89%29.92 "Hg4 mi
3:20 am75 °FClear.5 mph61%29.92 "Hg10 mi
2:50 am75 °FClear.3 mph61%29.92 "Hg10 mi
2:20 am75 °FClear.6 mph57%29.92 "Hg10 mi
1:50 am75 °FClear.5 mph54%29.95 "Hg10 mi
1:20 am75 °FClear.5 mph61%29.95 "Hg10 mi
12:50 am77 °FPassing clouds.3 mph54%29.95 "HgN/A
12:20 am77 °FClear.3 mph51%29.95 "Hg10 mi
11:50 pm
Sun, Jul 23
77 °FClear.5 mph51%29.98 "Hg10 mi
11:20 pm79 °FClear.2 mph54%29.98 "Hg10 mi
10:50 pm81 °FClear.2 mph42%29.98 "Hg10 mi
10:20 pm79 °FPassing clouds.3 mph51%29.95 "HgN/A
9:50 pm81 °FClear.2 mph62%29.95 "Hg10 mi
9:20 pm81 °FClear.2 mph62%29.95 "Hg10 mi
8:50 pm82 °FClear.2 mph62%29.95 "Hg10 mi
8:20 pm82 °FPassing clouds.3 mph62%29.98 "HgN/A
7:50 pm84 °FPassing clouds.5 mph58%29.98 "HgN/A
7:20 pm86 °FPassing clouds.6 mph55%29.98 "HgN/A
6:50 pm88 °FPassing clouds.7 mph52%29.98 "HgN/A
6:20 pm90 °FPassing clouds.8 mph49%29.98 "HgN/A
5:20 pm90 °FPassing clouds.10 mph46%29.98 "HgN/A
4:50 pm91 °FPassing clouds.8 mph46%29.98 "HgN/A
4:20 pm91 °FPassing clouds.8 mph46%29.98 "HgN/A
3:50 pm91 °FPassing clouds.9 mph46%29.98 "HgN/A
3:20 pm90 °FPassing clouds.7 mph46%30.01 "HgN/A
2:50 pm88 °FPassing clouds.9 mph52%30.01 "HgN/A
2:20 pm90 °FPassing clouds.8 mph49%30.01 "HgN/A
1:50 pm90 °FPassing clouds.7 mph49%30.01 "HgN/A
1:20 pm88 °FPassing clouds.8 mph52%30.01 "HgN/A
12:50 pm90 °FPassing clouds.7 mph46%30.01 "HgN/A
12:20 pm88 °FPassing clouds.7 mph49%30.01 "HgN/A
11:50 am90 °FSunny.5 mph43%30.01 "Hg10 mi
11:20 am88 °FSunny.6 mph40%30.01 "Hg10 mi
10:50 am88 °FPassing clouds.6 mph40%30.01 "HgN/A
10:20 am86 °FPassing clouds.5 mph40%30.01 "HgN/A
9:50 am84 °FSunny.2 mph45%30.01 "Hg10 mi
9:20 am81 °FSunny.3 mph54%30.01 "Hg10 mi
Weather by CustomWeather, © 2017

See weather overviewHow to use our weather pages